Location: Slidell
(30.2789°N, 89.7378°W)
Time: 18:17:01
(UTC-06:00)

Daily predictions for brighter satellites

Satellite Brightness Start Highest point End
(mag) Time Altitude Azimuth Time Altitude Azimuth Time Altitude Azimuth
ATLAS 2A CENTAUR R/B 4.2 17:55:38 10° W 18:02:12 75° S 18:32:53 10° E
CZ-3C R/B 3.1 18:07:50 10° WSW 18:15:52 22° S 18:18:52 10° SE
ALOS 3.6 18:14:24 10° ESE 18:17:40 19° ENE 18:20:56 10° NNE
Cosmos 1818 3.7 18:19:23 10° SSW 18:24:48 83° WNW 18:30:17 10° NNE
ASTRO E2 2.8 18:23:20 10° W 18:27:23 78° SSW 18:31:24 10° ESE
Cosmos 1536 Rocket 4.3 18:23:56 10° NNE 18:27:58 32° E 18:31:57 10° SE
Cosmos 1484 Rocket 4.4 18:26:12 10° S 18:29:59 41° W 18:33:44 10° NNW
Meteor 1-18 Rocket 4.2 18:25:22 10° N 18:30:56 75° E 18:36:33 10° SSE
SJ-6B 3.4 18:27:22 10° SE 18:31:07 37° ENE 18:34:48 10° N
TSX-5 3.2 18:30:20 10° SSW 18:33:40 84° ESE 18:36:49 10° NNE
SL-16 R/B 2.3 18:29:11 10° N 18:34:46 57° ENE 18:40:19 10° SSE
Nadezhda 1 Rocket 4.0 18:30:48 10° N 18:36:55 90° WSW 18:42:59 10° S
Resurs 01 Rocket 2.8 18:33:42 10° ESE 18:37:06 22° ENE 18:40:30 10° NNE
DNEPR-1 R/B 4.0 18:33:50 10° N 18:37:45 38° ENE 18:41:50 10° SE
ERBS 3.6 18:34:31 10° NW 18:37:50 44° WSW 18:41:08 10° SSE
Cosmos 407 Rocket 4.1 18:33:08 10° SSW 18:38:16 61° WNW 18:43:30 10° N
Cosmos 676 Rocket 4.0 18:35:13 10° SSW 18:40:23 88° WNW 18:45:37 10° NNE
Gbstr 26 Del rocket 2.6 18:36:27 10° SW 18:40:25 82° SE 18:43:57 11° NE
PSLV R/B 4.4 18:40:27 10° WNW 18:43:24 38° SW 18:46:22 10° SE
Cosmos 1340 3.4 18:40:34 10° NNE 18:43:56 30° E 18:47:17 10° SE
Cosmos 1238 Rocket 3.3 18:42:56 10° NNE 18:45:18 21° E 18:45:30 21° E
Hubble Space Telescope 2.8 18:45:52 10° S 18:48:08 14° SSE 18:49:46 12° SE
Cosmos 2181 Rocket 4.2 18:45:07 10° N 18:51:08 47° E 18:57:12 10° SSE
Cosmos 2322 Rocket 2.1 18:47:02 10° NNW 18:52:40 87° ENE 18:58:17 10° SSE
Cosmos 1300 Rocket 3.5 18:49:01 10° S 18:53:20 63° E 18:57:43 10° NNE
Tiangong 2 2.8 18:51:47 10° NNW 18:54:03 19° NNE 18:54:33 18° NE
Cosmos 1536 3.3 18:52:08 10° SSE 18:55:47 35° E 18:59:26 10° NNE
Cosmos 44 Rocket 4.5 18:52:08 10° NW 18:56:35 42° WSW 19:00:56 10° S
Resurs 1-3 4.2 18:55:48 10° SE 18:59:43 33° ENE 19:03:39 10° N
Meteor 1-13 Rocket 4.3 18:54:27 10° N 18:59:52 52° E 19:05:22 10° SSE
FENGYUN 3A 3.6 18:57:32 10° SSE 19:02:49 61° ENE 19:08:10 10° N
Cosmos 1140 Rocket 3.4 18:58:16 10° SSW 19:03:23 90° ESE 19:08:33 10° NNE
Cosmos 2074 Rocket 4.3 18:57:53 10° SSE 19:03:38 41° E 19:09:26 10° NNE
Cosmos 2184 Rocket 4.4 18:58:30 10° SSE 19:04:20 40° E 19:10:08 10° NNE
Cosmos 1709 Rocket 4.2 18:58:09 10° S 19:04:23 75° W 19:10:35 10° N
Cosmos 2322 4.3 19:00:14 10° N 19:05:22 33° ENE 19:07:31 26° ESE
SL-19 R/B 4.4 19:01:10 10° SSE 19:06:35 54° ENE 19:12:14 10° N
Okean 1 3.9 19:03:21 10° NNW 19:07:21 60° W 19:11:21 10° S
Cosmos 1461 2.7 19:06:36 10° NNW 19:10:39 79° ENE 19:13:35 19° SSE
H-2A R/B 2.9 19:10:07 38° ESE 19:10:52 44° ENE 19:14:25 10° N
Spot 2 Rocket 3.5 19:08:02 10° SSE 19:12:58 58° ENE 19:17:55 10° N
Cosmos 614 Rocket 3.8 19:10:40 10° SSW 19:15:45 87° ESE 19:20:51 10° NNE
Cosmos 44 4.3 19:12:15 10° NW 19:16:19 39° WSW 19:20:18 10° S
COSMOS 2428 4.1 19:13:58 10° NNE 19:16:58 20° NE 19:16:58 20° NE
Meteor 2-4 Rocket 3.8 19:14:11 10° N 19:19:29 46° E 19:22:38 22° SE
Cosmos 1850 Rocket 3.9 19:16:54 10° SSW 19:22:10 83° ESE 19:27:30 10° NNE
Okean 1 Rocket 3.3 19:19:46 10° SSW 19:24:13 73° W 19:28:43 10° N
HJ-1C 4.2 19:24:07 10° S 19:27:24 51° W 19:30:42 10° NNW
Meteor 1-11 Rocket 4.2 19:23:03 10° SSW 19:28:42 63° W 19:34:31 10° N
GPS 2-04 Rocket1 2.7 19:25:59 10° WSW 19:30:19 90° SE 19:30:46 71° ENE
Abrixas rocket 2.9 19:30:24 10° SW 19:33:01 52° SW 19:33:01 52° SW
Cosmos 2219 3.1 19:30:05 10° SSW 19:35:50 88° ESE 19:41:01 13° NNE
Cosmos 2360 Rocket 2.1 19:39:12 10° NNW 19:44:52 89° ENE 19:47:02 40° SSE
Helios 1B rocket 2.7 19:44:11 37° N 19:45:40 67° WNW 19:49:46 10° SSW
Cosmos 2219 Rocket 4.4 19:43:44 10° NNE 19:44:09 11° NNE 19:44:09 11° NNE
Okean 1-7 Rocket 3.8 19:44:24 10° N 19:48:12 62° NNW 19:48:12 62° NNW
OAO 3 Copernicus 4.5 19:47:26 10° WNW 19:52:08 63° NNW 19:52:08 63° NNW
ALOS 4.0 19:50:42 10° SSW 19:54:49 31° W 19:58:58 10° NW
Meteor 2-13 Rocket 4.2 19:52:43 10° S 20:01:50 31° NNE 20:04:49 10° N
ATLAS 2A CENTAUR R/B 3.1 20:03:21 10° WSW 20:07:02 45° S 20:07:25 45° S
Resurs 01 Rocket 3.8 20:09:51 10° SSW 20:13:24 24° W 20:16:58 10° NW
Hubble Space Telescope 3.8 20:25:03 10° SW 20:25:09 11° SW 20:25:09 11° SW
CZ-3 Stage 3 4.0 20:13:20 10° WSW 20:44:40 56° S 20:44:40 56° S
